STARLINK-36206 (66930 NORAD) Tracking and Keplerian Element Data

This shows tracking and keplerian element data for the satellite.

Feedback or suggestion? Click here.




ElementValue
Catalog66930
NameSTARLINK-36206
Epoch Orbit319
Epoch Day354.25003472
Epoch Year2025
RAAN12.7104
Inclination53.1562
Eccentricity8.35E-05
Argument of Perigee92.1625
Mean Anonmoly148.5602
Mean Motion15.77854908
Decay Rate-0.01420466
L11 66930U 25286F 25354.25003472 -.01420466 00000+0 -93045-2 0 9996
L22 66930 53.1562 12.7104 0000835 92.1625 148.5602 15.77854908 3197



Live tracking and technical data element details for STARLINK-36206 (NORAD 66930). STARLINK-36206 can be tracked NOW for your location showing map with azimuth and elevation plus other details from your city location.







IsCatalogInMostPopularTable: catalog: 66930, numindb: 17
Update: records affected: 1



GetName: 66930 STARLINK-36206

Hit Count: updated at: Wed, 15 Apr 2026 00:57:56 GMT